Find Kosmos-1287

NORAD ID: 12636 Int'l Des: 1981-074 Owner: GUKOS Country: SU operational
LEOCIRCULAR

Live Position

Loading 3D Globe...

About Kosmos-1287

Description loading...

Upcoming Passes

Passes for default location (London). Set your location on the main map for personalized predictions.

Altitude History

Loading altitude history...

Two-Line Element Set

1 12636U 81074A 26109.21279620 -.00000023 00000-0 -52671-4 0 9997
2 12636 74.0312 281.2850 0030282 97.9361 262.5126 12.44354403 31090
Epoch: Apr 19, 2026 • Age: 16 hours

Current Status

Altitude 1478.3 km
Velocity 7.13 km/s
Sub-Earth Point 22.68°N, 75.07°W
Launch Date Aug 6, 1981
Age 44.7 years
Type other

Technical Details

Classification Payload
Mass 60.00 kg
Dry Mass 60.00 kg
Total Mass 60.00 kg
Length 0.80 m
Diameter 0.80 m
Span 0.80 m
Shape Poly
Manufacturer NPOPM
Bus Type Strela-1 11F625
Phase Status In Orbit
Owner/State GUKOS/SU

Most Searched